GW4079 Weather Reports


Display with metric or nautical units.
time (UTC)temp
F
wind
direction
speed
MPH
gust
MPH
rain 1hr
in
rain 24hr
in
rain mn
in
humidity
%
barometer
mb
20260906100036 55 59 15.0 20.0 0.00 0.00 0.00 88 1019.5
20260906094536 55 55 16.0 21.0 0.00 0.00 0.00 88 1019.3
20260906093047 55 63 16.0 22.0 0.00 0.00 0.00 87 1019.4
20260906091535 55 46 15.0 22.0 0.00 0.00 0.00 87 1019.6
20260906090107 55 40 15.0 21.0 0.00 0.00 0.00 87 1019.8
20260906084541 55 44 16.0 20.0 0.00 0.00 0.00 86 1019.9
20260906083042 56 65 16.0 23.0 0.00 0.00 0.00 85 1020.1
20260906081543 56 67 15.0 20.0 0.00 0.00 0.00 84 1020.0
20260906080042 56 57 15.0 22.0 0.00 0.00 0.00 83 1020.0
20260906074551 56 67 15.0 23.0 0.00 0.00 0.00 83 1020.2
20260906073045 56 63 15.0 23.0 0.00 0.00 0.00 82 1020.3
20260906071543 57 47 15.0 22.0 0.00 0.00 0.00 81 1020.5
20260906070042 57 73 15.0 22.0 0.00 0.00 0.00 81 1020.7
20260906064544 57 64 17.0 22.0 0.00 0.00 0.00 80 1020.7
20260906063040 58 68 16.0 23.0 0.00 0.00 0.00 80 1021.0
20260906061550 57 68 16.0 22.0 0.00 0.00 0.00 79 1020.8
20260906060044 57 63 15.0 21.0 0.00 0.00 0.00 79 1020.9
20260906054553 58 60 14.0 23.0 0.00 0.00 0.00 79 1020.7
20260906053100 58 66 16.0 23.0 0.00 0.00 0.00 78 1020.9
20260906051545 58 67 16.0 23.0 0.00 0.00 0.00 76 1020.7
20260906050052 59 62 17.0 24.0 0.00 0.00 0.00 74 1020.7
20260906044547 59 34 15.0 22.0 0.00 0.00 0.00 73 1020.7
20260906043053 59 67 16.0 23.0 0.00 0.00 0.00 72 1020.0
20260906041556 59 61 15.0 24.0 0.00 0.00 0.00 71 1019.8
20260906040050 59 47 18.0 23.0 0.00 0.00 0.00 71 1020.0
20260906034547 59 55 16.0 22.0 0.00 0.00 0.00 70 1020.4
20260906033054 60 33 16.0 25.0 0.00 0.00 0.00 69 1020.7
20260906031547 60 62 16.0 23.0 0.00 0.00 0.00 68 1020.1
20260906030056 60 51 17.0 22.0 0.00 0.00 0.00 68 1019.4
20260906024609 60 67 16.0 23.0 0.00 0.00 0.00 67 1019.0
20260906023059 61 63 16.0 23.0 0.00 0.00 0.00 66 1019.0
20260906021558 61 59 17.0 24.0 0.00 0.00 0.00 65 1019.1
20260906020051 62 86 17.0 22.0 0.00 0.00 0.00 64 1019.3
20260906014554 63 50 14.0 22.0 0.00 0.00 0.00 61 1019.0
20260906013057 65 35 13.0 20.0 0.00 0.00 0.00 58 1019.0
20260906011559 66 42 16.0 24.0 0.00 0.00 0.00 57 1018.8
20260906010128 68 57 18.0 24.0 0.00 0.00 0.00 53 1018.9
20260906004600 70 24 16.0 21.0 0.00 0.00 0.00 49 1018.9
20260906003058 72 32 16.0 21.0 0.00 0.00 0.00 44 1018.9
20260906001603 73 52 12.0 19.0 0.00 0.00 0.00 37 1018.8
20260906000107 74 76 10.0 15.0 0.00 0.00 0.00 35 1018.9
20260905234547 73 65 9.0 18.0 0.00 0.00 0.00 36 1019.1
20260905233055 75 60 9.0 15.0 0.00 0.00 0.00 34 1019.1
20260905231553 75 66 9.0 16.0 0.00 0.00 0.00 34 1019.2
20260905230111 75 74 8.0 14.0 0.00 0.00 0.00 35 1019.1
20260905224554 75 73 10.0 16.0 0.00 0.00 0.00 35 1019.0
20260905223051 76 98 7.0 13.0 0.00 0.00 0.00 34 1019.1
20260905221558 75 61 6.0 18.0 0.00 0.00 0.00 35 1019.2
20260905220056 75 81 5.0 11.0 0.00 0.00 0.00 35 1019.3
20260905214601 75 114 3.0 12.0 0.00 0.00 0.00 34 1019.4
20260905213107 75 68 5.0 14.0 0.00 0.00 0.00 36 1019.5
20260905211601 74 43 3.0 11.0 0.00 0.00 0.00 36 1019.7
20260905210120 74 69 4.0 13.0 0.00 0.00 0.00 36 1019.8
20260905204610 74 22 4.0 11.0 0.00 0.00 0.00 35 1019.7
20260905203105 73 34 5.0 13.0 0.00 0.00 0.00 36 1019.9
20260905201603 73 46 8.0 15.0 0.00 0.00 0.00 36 1020.1
20260905200123 73 15 8.0 15.0 0.00 0.00 0.00 36 1020.1
20260905194602 73 37 10.0 15.0 0.00 0.00 0.00 36 1020.2
20260905193107 72 352 8.0 15.0 0.00 0.00 0.00 37 1020.3
20260905191601 72 59 5.0 12.0 0.00 0.00 0.00 38 1020.4
20260905190103 71 5 8.0 12.0 0.00 0.00 0.00 40 1020.8
20260905184612 71 51 8.0 14.0 0.00 0.00 0.00 43 1020.9
20260905183115 70 14 4.0 15.0 0.00 0.00 0.00 43 1021.0
20260905181602 69 27 7.0 12.0 0.00 0.00 0.00 44 1021.1
20260905180108 70 336 9.0 12.0 0.00 0.00 0.00 43 1021.3
20260905174605 68 25 5.0 12.0 0.00 0.00 0.00 48 1021.1
20260905173101 68 38 3.0 14.0 0.00 0.00 0.00 51 1021.1
20260905171553 67 344 6.0 11.0 0.00 0.00 0.00 49 1021.1
20260905170112 67 45 9.0 13.0 0.00 0.00 0.00 50 1021.0
20260905164608 66 15 4.0 10.0 0.00 0.00 0.00 52 1021.1
20260905163103 65 33 6.0 11.0 0.00 0.00 0.00 58 1020.8
20260905161603 64 360 6.0 11.0 0.00 0.00 0.00 60 1020.7
20260905160055 62 360 6.0 11.0 0.00 0.00 0.00 65 1021.0
20260905154559 61 343 8.0 11.0 0.00 0.00 0.00 66 1020.9
20260905153052 63 9 8.0 13.0 0.00 0.00 0.00 64 1020.7
20260905151644 60 352 10.0 15.0 0.00 0.00 0.00 73 1020.5
20260905150123 59 352 11.0 15.0 0.00 0.00 0.00 73 1020.6
20260905144654 57 341 10.0 16.0 0.00 0.00 0.00 77 1020.5
20260905143151 57 340 14.0 17.0 0.00 0.00 0.00 76 1020.8
20260905141547 56 360 11.0 18.0 0.00 0.00 0.00 76 1020.0
20260905140109 55 342 12.0 16.0 0.00 0.00 0.00 77 1020.0
20260905134553 54 337 12.0 19.0 0.00 0.00 0.00 76 1020.3
20260905133045 53 315 5.0 7.0 0.00 0.00 0.00 79 1021.2
20260905131552 53 307 4.0 8.0 0.00 0.00 0.00 78 1020.3
20260905130050 51 352 7.0 11.0 0.00 0.00 0.00 82 1019.0
20260905124641 51 331 8.0 11.0 0.00 0.00 0.00 82 1018.5
20260905123045 51 352 6.0 9.0 0.00 0.00 0.00 81 1019.2
20260905121850 52 332 5.0 10.0 0.00 0.00 0.00 78 1019.8
20260905121725 52 332 5.0 10.0 0.00 0.00 0.00 78 1019.8
20260905120034 52 269 8.0 12.0 0.00 0.00 0.00 75 1020.4
20260905114542 54 286 6.0 12.0 0.00 0.00 0.00 72 1019.6
20260905113037 53 333 8.0 11.0 0.00 0.00 0.00 71 1018.6
20260905111535 52 326 7.0 11.0 0.00 0.00 0.00 73 1018.5
20260905110043 53 315 7.0 11.0 0.00 0.00 0.00 70 1018.8
20260905104535 52 333 7.0 10.0 0.00 0.00 0.00 72 1018.5
20260905103036 51 338 4.0 6.0 0.00 0.00 0.00 74 1018.2
20260905101544 50 333 4.0 8.0 0.00 0.00 0.00 75 1018.1